Location: Newark
(48.1500°N, 2.9667°W)
Time: 20:45:15
(UTC+00:00)

A-11 Canister half - Pass Details

Date: 23 January 2020
Orbit: 1524 x 1684 km, 47.3° (Epoch: 19 February)

Event Time Altitude Azimuth Distance (km) Brightness Sun altitude
Rises 21:02:56 0° 267° (W) 4,706 12.3 -40.6°
Reaches altitude 10° 21:05:57 10° 267° (W) 3,738 11.6 -41.1°
Enters shadow 21:13:21 61° 263° (W) 1,762 9.3 -42.2°
Maximum altitude 21:15:28 86° 180° (S) 1,597 - -42.6°
Drops below altitude 10° 21:25:21 10° 94° (E) 3,864 - -44.1°
Sets 21:28:30 0° 94° (E) 4,870 - -44.6°
